Weather History for KASJ - September, 2013

Change the Weather History Date:

Saturday, September 21, 2013

  Actual Average (KEMV) Record (KEMV)
Temperature  
Mean Temperature 64 °F -  
Max Temperature 74 °F 81 °F 88 °F (1983)
Min Temperature 54 °F 58 °F 40 °F (1991)
Degree Days  
Heating Degree Days 1    
Growing Degree Days 14 (Base 50)    
Moisture  
Dew Point 62 °F    
Average Humidity 86    
Maximum Humidity 96    
Minimum Humidity 66    
Precipitation  
Precipitation 0.03 in - - ()
Sea Level Pressure  
Sea Level Pressure 29.87 in    
Wind  
Wind Speed 2 mph (South)    
Max Wind Speed 9 mph    
Max Gust Speed -    
Visibility 10 miles    
Events Rain    
Averages and records for this station are not official NWS values.
T = Trace of Precipitation, MM = Missing Value Source: NWS Daily Summary

Daily Weather History Graph

Daily Weather History Graph

Search for Another Location

Airport or City:

Trip Planner

Search our weather history database for the weather conditions in past years. The results will help you decide how hot, cold, wet, or windy it might be!

Date:

Astronomy

Sep. 21, 2013 Rise Set
Actual Time 6:55 AM EDT 7:06 PM EDT
Civil Twilight 6:30 AM EDT 7:32 PM EDT
Nautical Twilight 6:00 AM EDT 8:02 PM EDT
Astronomical Twilight 5:29 AM EDT 8:32 PM EDT
Moon 8:22 PM EDT (9/21) 9:07 AM EDT (9/21)
Length of Visible Light 13h 02m
Length of Day
12h 10m
Waning Gibbous, 94% of the Moon is Illuminated
Sep 21
Waning Gibbous
Sep 26
Last Quarter
Oct 4
New
Oct 11
First Quarter
Oct 18
Full

Hourly Weather History & Observations

Time (EDT) Temp. Dew Point Humidity Pressure Visibility Wind Dir Wind Speed Gust Speed Precip Events Conditions
12:15 AM 60.6 °F 57.0 °F 88% 30.00 in 10.0 mi Calm Calm - N/A   Clear
12:35 AM 60.1 °F 57.4 °F 91% 30.00 in 10.0 mi Calm Calm - N/A   Clear
12:55 AM 59.4 °F 56.8 °F 91% 30.00 in 10.0 mi Calm Calm - N/A   Clear
1:15 AM 58.1 °F 55.9 °F 93% 29.99 in 10.0 mi Calm Calm - N/A   Clear
1:35 AM 59.4 °F 57.2 °F 93% 30.00 in 10.0 mi South 3.5 mph - N/A   Clear
1:55 AM 58.3 °F 56.3 °F 93% 29.99 in 10.0 mi Calm Calm - N/A   Scattered Clouds
2:15 AM 59.2 °F 56.7 °F 91% 29.98 in 10.0 mi Calm Calm - N/A   Scattered Clouds
2:35 AM 59.5 °F 56.7 °F 90% 29.98 in 10.0 mi Calm Calm - N/A   Scattered Clouds
2:55 AM 58.5 °F 55.9 °F 91% 29.98 in 10.0 mi Calm Calm - N/A   Scattered Clouds
3:15 AM 58.1 °F 55.9 °F 93% 29.98 in 10.0 mi Calm Calm - N/A   Clear
3:35 AM 57.6 °F 55.9 °F 94% 29.98 in 10.0 mi Calm Calm - N/A   Clear
3:55 AM 57.7 °F 55.9 °F 94% 29.97 in 10.0 mi Calm Calm - N/A   Scattered Clouds
4:15 AM 56.8 °F 55.0 °F 94% 29.97 in 10.0 mi Calm Calm - N/A   Clear
4:35 AM 57.0 °F 55.0 °F 93% 29.96 in 10.0 mi Calm Calm - N/A   Scattered Clouds
4:55 AM 56.7 °F 54.9 °F 94% 29.96 in 10.0 mi Calm Calm - N/A   Clear
5:15 AM 56.1 °F 54.3 °F 94% 29.96 in 10.0 mi Calm Calm - N/A   Clear
5:35 AM 55.6 °F 54.3 °F 96% 29.95 in 7.0 mi Calm Calm - N/A   Clear
5:55 AM 55.4 °F 53.8 °F 94% 29.95 in 10.0 mi Calm Calm - N/A   Clear
6:15 AM 55.4 °F 53.6 °F 94% 29.95 in 10.0 mi Calm Calm - N/A   Clear
6:35 AM 54.7 °F 53.1 °F 94% 29.94 in 7.0 mi Calm Calm - N/A   Clear
6:55 AM 55.4 °F 53.8 °F 94% 29.93 in 10.0 mi Calm Calm - N/A   Clear
7:15 AM 55.6 °F 53.6 °F 93% 29.93 in 10.0 mi Calm Calm - N/A   Clear
7:35 AM 57.0 °F 55.2 °F 94% 29.94 in 10.0 mi Calm Calm - N/A   Mostly Cloudy
7:55 AM 58.1 °F 55.6 °F 91% 29.93 in 10.0 mi Calm Calm - N/A   Scattered Clouds
8:15 AM 59.9 °F 58.1 °F 94% 29.93 in 7.0 mi Calm Calm - N/A   Scattered Clouds
8:35 AM 63.1 °F 60.8 °F 92% 29.93 in 10.0 mi Calm Calm - N/A   Clear
8:55 AM 65.7 °F 61.0 °F 85% 29.93 in 10.0 mi Calm Calm - N/A   Clear
9:15 AM 69.6 °F 61.7 °F 76% 29.92 in 10.0 mi SE 4.6 mph - N/A   Clear
9:35 AM 72.5 °F 60.4 °F 66% 29.92 in 10.0 mi SSE 9.2 mph - N/A   Scattered Clouds
9:55 AM 72.5 °F 60.8 °F 67% 29.93 in 10.0 mi SSE 5.8 mph - N/A   Mostly Cloudy
10:15 AM 72.0 °F 60.8 °F 68% 29.93 in 10.0 mi South 8.1 mph - N/A   Mostly Cloudy
10:35 AM 72.1 °F 61.9 °F 70% 29.93 in 10.0 mi South 3.5 mph - N/A   Scattered Clouds
10:55 AM 72.1 °F 62.2 °F 71% 29.92 in 10.0 mi South 5.8 mph - N/A   Mostly Cloudy
11:15 AM 70.9 °F 63.1 °F 76% 29.91 in 10.0 mi South 3.5 mph - N/A   Mostly Cloudy
11:35 AM 71.6 °F 63.1 °F 75% 29.91 in 10.0 mi South 3.5 mph - N/A   Scattered Clouds
11:55 AM 71.4 °F 63.5 °F 76% 29.90 in 10.0 mi Calm Calm - N/A   Mostly Cloudy
12:15 PM 71.6 °F 63.9 °F 76% 29.89 in 10.0 mi South 4.6 mph - N/A   Mostly Cloudy
12:35 PM 71.1 °F 63.7 °F 77% 29.89 in 10.0 mi South 5.8 mph - N/A   Mostly Cloudy
12:55 PM 69.1 °F 64.9 °F 87% 29.89 in 10.0 mi South 3.5 mph - N/A Rain Light Rain
1:15 PM 70.3 °F 65.5 °F 85% 29.88 in 10.0 mi South 5.8 mph - N/A   Overcast
1:35 PM 71.8 °F 65.3 °F 80% 29.86 in 10.0 mi South 6.9 mph - N/A   Mostly Cloudy
1:55 PM 72.7 °F 65.1 °F 77% 29.85 in 10.0 mi South 5.8 mph - N/A   Overcast
2:15 PM 72.9 °F 65.3 °F 77% 29.84 in 10.0 mi South 5.8 mph - N/A   Mostly Cloudy
2:35 PM 73.6 °F 65.3 °F 75% 29.83 in 10.0 mi South 5.8 mph - N/A   Mostly Cloudy
2:55 PM 74.7 °F 65.7 °F 73% 29.83 in 10.0 mi South 5.8 mph - N/A   Scattered Clouds
3:15 PM 74.1 °F 65.7 °F 75% 29.82 in 10.0 mi South 6.9 mph - N/A   Scattered Clouds
3:35 PM 73.4 °F 65.7 °F 77% 29.81 in 10.0 mi South 9.2 mph - N/A   Mostly Cloudy
3:55 PM 71.2 °F 67.1 °F 87% 29.80 in 7.0 mi SSE 5.8 mph - 0.01 in Rain Rain
4:15 PM 72.5 °F 67.6 °F 85% 29.80 in 10.0 mi South 6.9 mph - N/A   Mostly Cloudy
4:35 PM 72.9 °F 66.7 °F 81% 29.79 in 10.0 mi South 5.8 mph - N/A   Scattered Clouds
4:55 PM 73.0 °F 66.7 °F 81% 29.78 in 10.0 mi South 5.8 mph - N/A   Scattered Clouds
5:15 PM 73.0 °F 66.7 °F 81% 29.78 in 10.0 mi South 4.6 mph - N/A   Scattered Clouds
5:35 PM 72.9 °F 66.6 °F 81% 29.78 in 10.0 mi South 5.8 mph - N/A   Mostly Cloudy
5:55 PM 72.5 °F 66.6 °F 82% 29.77 in 10.0 mi SSE 5.8 mph - N/A   Mostly Cloudy
6:15 PM 71.8 °F 66.4 °F 83% 29.77 in 10.0 mi SSE 4.6 mph - N/A   Scattered Clouds
6:35 PM 71.4 °F 66.4 °F 84% 29.77 in 10.0 mi SSE 3.5 mph - N/A   Clear
6:55 PM 71.1 °F 66.4 °F 85% 29.76 in 10.0 mi Calm Calm - N/A   Light Drizzle
7:15 PM 70.5 °F 66.4 °F 87% 29.76 in 10.0 mi South 3.5 mph - N/A Rain Rain
7:35 PM 70.0 °F 66.4 °F 88% 29.75 in 10.0 mi SSE 3.5 mph - N/A Rain Light Rain
7:55 PM 69.3 °F 66.4 °F 91% 29.76 in 10.0 mi South 3.5 mph - N/A   Light Drizzle
8:15 PM 69.1 °F 66.4 °F 91% 29.76 in 10.0 mi Calm Calm - N/A   Light Drizzle
8:35 PM 69.1 °F 66.4 °F 91% 29.76 in 10.0 mi South 3.5 mph - N/A Rain Light Rain
8:55 PM 68.9 °F 66.4 °F 92% 29.76 in 10.0 mi Calm Calm - N/A   Clear
9:15 PM 69.3 °F 66.6 °F 91% 29.77 in 10.0 mi South 3.5 mph - N/A Rain Light Rain
9:35 PM 69.1 °F 66.4 °F 91% 29.77 in 10.0 mi South 3.5 mph - N/A   Mostly Cloudy
9:55 PM 69.1 °F 66.4 °F 91% 29.76 in 10.0 mi Calm Calm - N/A   Scattered Clouds
10:15 PM 69.4 °F 66.6 °F 91% 29.76 in 10.0 mi South 3.5 mph - N/A Rain Light Rain
10:35 PM 69.3 °F 66.7 °F 92% 29.77 in 10.0 mi Calm Calm - N/A Rain Light Rain
10:55 PM 68.9 °F 66.7 °F 93% 29.76 in 7.0 mi Calm Calm - N/A Rain Light Rain
11:15 PM 68.7 °F 66.9 °F 94% 29.76 in 7.0 mi Calm Calm - 0.01 in Rain Light Rain
11:35 PM 68.2 °F 66.6 °F 95% 29.76 in 2.5 mi Calm Calm - 0.01 in Rain Light Rain
11:55 PM 68.0 °F 66.6 °F 95% 29.75 in 3.0 mi Calm Calm - 0.02 in Rain Light Rain